Tracking 28790 objects as of 19-Apr-2024
HD Live streaming from Space Station
objects crossing your sky now

OPS 4682 DEB

Track OPS 4682 DEB now!
10-day predictions


NORAD ID: 38434
Int'l Code: 1965-027EP
Perigee: 1,259.3 km
Apogee: 1,306.6 km
Inclination: 90.2 °
Period: 111.1 minutes
Semi major axis: 7653 km
RCS: 0.0142 m2 (small)
Launch date: April 3, 1965
Source: United States (US)
Launch site: AIR FORCE WESTERN TEST RANGE (AFWTR)

Note: This is SATELLITE DEBRIS
Your satellite tracking list
Your tracking list is empty




NASA's NSSDC Master Catalog

Two Line Element Set (TLE):
1 38434U 65027EP  24106.90612243  .00000904  00000-0  31237-2 0  9993
2 38434  90.2475 348.3494 0030912 124.1177 236.2882 12.96502032559813
Source of the keplerian elements: AFSPC